Flag for Paraguay Weather past 2 weeks in Asuncion, Paraguay

Now
79 °F

Clear.


Feels Like: 81 °F
Forecast: 72 / 98 °F
Wind: 15 mph from Northeast

Location: Asuncion / Aeropuerto

Current Time: Sep 2, 2014 at 4:39:25 AM

Latest Report: Sep 2, 2014 at 4:00 AM


Visibility: 10 mi

Pressure: 29.59 "Hg

Humidity: 70%

Dew point: 68 °F

Location of AsuncionLocation

Historic Weather in Asuncion — Graph

°F

Asuncion temperature yesterday

Maximum temperature yesterday: 91 °F (at 3:00 PM)
Minimum temperature yesterday: 70 °F (at 4:00 AM)
Average temperature yesterday: 80 °F

Past Weeks' High & Low Weather Summary

 TemperatureHumidityPressure
High95 °F (Aug 24, 2:00 PM)100% (Aug 18, 3:00 AM)30.21 "Hg (Aug 18, 3:00 AM)
Low45 °F (Aug 26, 4:00 AM)26% (Aug 29, 3:00 PM)29.56 "Hg (Aug 24, 2:00 PM)
Average73 °F60%29.92 "Hg
* Reported Aug 18 3:00 AM — Sep 2 3:00 AM, Asuncion, Weather by CustomWeather, © 2014

Note: Actual official high and low records may vary slightly from our data, if they occured in-between our weather recording intervals... More about our weather records

Advertising

Asuncion weather history for previous 24 hours

 ConditionsComfort  
Time TempWeatherWind HumidityBarometerVisibility
3:00 AM
Sep 2
81 °FClear.9 mph66%29.62 "Hg10 mi
2:00 AM82 °FClear.12 mph62%29.62 "Hg10 mi
1:00 AM84 °FClear.14 mph58%29.62 "Hg10 mi
12:00 AM82 °FClear.8 mph62%29.65 "Hg10 mi
11:00 PM
Sep 1
81 °FClear.7 mph66%29.65 "Hg10 mi
10:00 PM79 °FClear.3 mph74%29.65 "Hg10 mi
9:00 PM81 °FClear.3 mph74%29.65 "Hg10 mi
8:00 PM82 °FClear.3 mph70%29.65 "Hg10 mi
7:00 PM84 °FClear.6 mph66%29.65 "Hg6 mi
6:00 PM86 °FClear.3 mph62%29.62 "Hg10 mi
5:00 PM90 °FClear.5 mph55%29.62 "Hg10 mi
4:00 PM91 °FSunny.9 mph52%29.65 "Hg10 mi
3:00 PM91 °FSunny.10 mph49%29.65 "Hg10 mi
2:00 PM90 °FPassing clouds.10 mph55%29.68 "HgN/A
1:00 PM90 °FPassing clouds.10 mph52%29.74 "HgN/A
12:00 PM88 °FPassing clouds.12 mph52%29.77 "HgN/A
11:00 AM84 °FSunny.12 mph55%29.80 "Hg10 mi
10:00 AM82 °FSunny.9 mph55%29.80 "Hg10 mi
9:30 AM81 °FPassing clouds.9 mph58%29.80 "HgN/A
9:00 AM79 °FPassing clouds.9 mph54%29.83 "HgN/A
8:30 AM79 °FSunny.7 mph54%29.83 "Hg10 mi
8:00 AM75 °FSunny.5 mph61%29.83 "Hg10 mi
7:30 AM73 °FSunny.No wind65%29.83 "Hg10 mi
7:00 AM70 °FPassing clouds.3 mph73%29.83 "HgN/A
6:00 AM70 °FPassing clouds.6 mph73%29.80 "HgN/A
5:00 AM70 °FPassing clouds.3 mph73%29.80 "HgN/A
4:00 AM70 °FPassing clouds.5 mph73%29.77 "HgN/A
Weather by CustomWeather, © 2014

See weather overviewHow to use our weather pages